Regional Weather Roundup
Issued by NWS

Home | Current Version | Previous Version | Graphics & Text | Print | Product List | Glossary On
Versions: 1 2 3 4 5 6 7 8 9 10 11 12 13 14 15 16 17 18 19 20 21 22 23 24 25 26 27 28 29 30 31 32 33 34 35 36 37 38 39 40 41 42 43 44 45 46 47 48 49 50
326
ASUS43 KDTX 050701
RWRMI
MICHIGAN HOURLY REGIONAL WEATHER ROUNDUP
NATIONAL WEATHER SERVICE DETROIT/PONTIAC MI
200 AM EST MON DEC 05 2016

NOTE: "FAIR" INDICATES FEW OR NO CLOUDS BELOW 12,000 FEET WITH NO
SIGNIFICANT WEATHER AND/OR OBSTRUCTION TO VISIBILITY.

MIZ047>049-052>055-059>063-066>070-074>076-081>083-050800-
SOUTHEAST LOWER MICHIGAN

CITY           SKY/WX    TMP DP  RH WIND       PRES   REMARKS
ADRIAN         CLOUDY    34  32  92 NW15G22   29.88R WCI  24
ALMA           FOG       30  30  99 SW5       29.83R VSB 1/2 WCI  26
ANN ARBOR      CLOUDY    33  32  96 SW9       29.84R WCI  25
BAD AXE        CLOUDY    32  32 100 CALM      29.80F FOG
CARO           CLOUDY    33  32  98 CALM      29.81R FOG
DETROIT CITY   CLOUDY    35  34  96 W12       29.83R WCI  27
DETROIT        CLOUDY    34  33  96 W12       29.86R FOG     WCI  25
FLINT          CLOUDY    33  32  96 W5        29.84R WCI  29
GROSSE ILE     CLOUDY    35  33  93 W14       29.84R FOG     WCI  26
HILLSDALE      CLOUDY    32  32 100 W10       29.86R WCI  24
HOWELL         CLOUDY    33  32  97 W6        29.84R FOG     WCI  27

CITY           SKY/WX    TMP DP  RH WIND       PRES   REMARKS
JACKSON        CLOUDY    33  30  88 W9        29.85R WCI  25
LAMBERTVILLE   CLOUDY    36  33  90 W8G16     29.89R WCI  30
LANSING        CLOUDY    32  30  92 SW7       29.85R FOG     WCI  26
LAPEER         NOT AVBL
MASON          CLOUDY    32  32 100 W6        29.85R FOG     WCI  26
MONROE         CLOUDY    35  34  98 W12G21    29.86R FOG     WCI  26
MT. CLEMENS    CLOUDY    35  34  99 W5        29.80R WCI  30
PONTIAC        CLOUDY    33  31  92 W9        29.81R WCI  25
PORT HOPE        N/A     33  32  96 CALM      29.78F
PORT HURON     CLOUDY    34  34 100 W5        29.81R WCI  30
TRI CITIES     FOG       32  32 100 S3        29.82S VSB 1/4
MIDLAND        CLOUDY    32  32  99 CALM      29.81S FOG
TROY           CLOUDY    34  32  94 W5        29.84R FOG     WCI  30
SAGINAW HB     CLOUDY    32  30  93 CALM      29.82R FOG
$$
MIZ043>046-050>051-056>058-064>065-071>073-077>080-050800-
SOUTHWEST LOWER MICHIGAN

CITY           SKY/WX    TMP DP  RH WIND       PRES   REMARKS
BATTLE CREEK   CLOUDY    34  32  92 W12       29.87R WCI  25
BENTON HARBOR  CLOUDY    37  31  78 W20G25    29.91R WCI  27
BIG RAPIDS     CLOUDY    34  32  91 W9        29.80R WCI  27
COLDWATER      CLOUDY    33  33  99 W9        29.88R FOG     WCI  25
FREMONT        CLOUDY    33  32  95 W7        29.83R WCI  27
HOLLAND        CLOUDY    37  32  82 W17G23    29.88R WCI  27
GRAND RAPIDS   CLOUDY    33  31  92 SW9       29.86R WCI  25
IONIA          CLOUDY    32  31  98 SW9       29.84R FOG     WCI  24
KALAMAZOO      CLOUDY    35  31  85 W8        29.88R WCI  29
LUDINGTON      CLOUDY    35  32  88 W15G21    29.83R WCI  25
MARSHALL       CLOUDY    33  32  96 W8        29.86R WCI  26
MOUNT PLEASANT CLOUDY    31  31  99 CALM      29.80S FOG
MUSKEGON       CLOUDY    38  32  79 W12       29.86R WCI  30
SOUTH HAVEN    CLOUDY    38  35  89 W14       29.90R WCI  29
$$
MIZ016>042-050800-
NORTHERN LOWER MICHIGAN

CITY           SKY/WX    TMP DP  RH WIND       PRES   REMARKS
ALPENA         SNOW      31  30  96 CALM      29.78F VSB 1/2
BEAVER ISLAND  DRIZZLE   35  34  96 SW5       29.73S WCI  31
BELLAIRE       FLURRIES  33  32  96 S5        29.77S WCI  28
CADILLAC       MIX PCPN  32  31  95 SW9       29.75R WCI  24
CHARLEVOIX     LGT SNOW  33  33 100 S3        29.77F
FRANKFORT      CLOUDY    36  32  85 W9        29.78S WCI  29
GAYLORD        LGT SNOW  31  27  85 SW8       29.74S FOG     WCI  23
GRAYLING       CLOUDY    32  30  93 CALM      29.76S
HARBOR SPRINGS CLOUDY    32  32  98 CALM      29.75F
HOUGHTON LAKE  CLOUDY    31  29  92 SW8       29.77S FOG     WCI  23
MANISTEE       CLOUDY    35  30  82 W18       29.80R WCI  24
OSCODA         LGT SNOW  33  32  96 MISG      29.78F
PELLSTON       LGT SNOW  31  29  92 SE5       29.76S FOG     WCI  26
ROGERS CITY    LGT SNOW  32  32  97 CALM      29.78S
TRAVERSE CITY  LGT SNOW  34  31  88 VRB3      29.76S VSB 1
$$
MIZ007>008-015-050800-
EASTERN UPPER MICHIGAN

CITY           SKY/WX    TMP DP  RH WIND       PRES   REMARKS
KINROSS        LGT SNOW  31  30  96 SE5       29.74F FOG     WCI  26
MACKINAC ISLAN LGT SNOW  32  32 100 S7        29.74F WCI  26
NEWBERRY       LGT SNOW  32  32  99 CALM      29.71F
S. S. MARIE    LGT SNOW  32  31  96 E3        29.74F FOG
MUNISING         N/A     32  31  96 S5        29.70F WCI  27
$$
MIZ004>006-011>014-085-050800-
CENTRAL UPPER MICHIGAN

CITY           SKY/WX    TMP DP  RH WIND       PRES   REMARKS
MANISTIQUE     LGT SNOW  32  31  94 W5        29.72S WCI  28
ESCANABA       CLOUDY    32  30  92 W9        29.74S WCI  24
MENOMINEE      CLOUDY    31  31 100 SW7       29.78R FOG     WCI  24
SAWYER-GWINN   CLOUDY    30  28  94 SW8       29.69S WCI  22
$$
MIZ001>003-009>011-084-050800-
WESTERN UPPER MICHIGAN

CITY           SKY/WX    TMP DP  RH WIND       PRES   REMARKS
IRON MOUNTAIN  CLOUDY    31  27  85 S5        29.70S WCI  26
HOUGHTON       CLOUDY    30  27  88 S5        29.64F WCI  25
COPPER HARBOR    N/A     32  30  92 VRB6      29.66S WCI  26
IRONWOOD       LGT RAIN  34  30  86 W17G24    29.68R WCI  23
$$

ABBREVIATIONS USED IN REMARKS
   TC - TEMPERATURE IN CELSIUS
  WCI - WIND CHILL INDEX
   HX - HEAT INDEX
  VSB - VISIBILITY





USA.gov is the U.S. government's official web portal to all federal, state and local government web resources and services.